"SCLK","SCET","ORBIT_NUMBER","ALTITUDE","LATITUDE_PLANEOGRAPHIC","LATITUDE_PLANETOCENTRIC","LOCAL_TRUE_SOLAR_TIME","WEST_LONGITUDE","X_SUN_DIR_DISTANCE","RHO_PRP_SUN_DISTANCE","SOLAR_ZENITH_ANGLE","ELECTRON_PLASMA_FREQUENCY","FPE_QUALITY","FPP_VERIFICATION","ELECTRON_PLASMA_DENSITY","ELECTRON_CYCLOTRON_PERIOD","FCP_QUALITY","B_MAGNITUDE"
"1/0362526282.13907",2014-10-27T21:44:46.024,13737,1572.00,60.51,60.28,"14:21:03",16.40,-0.720,1.260,119.74,6.90e+01,2,,5.90e+01,,,
"1/0362526289.49493",2014-10-27T21:44:53.567,13737,1561.00,60.79,60.56,"14:28:03",16.37,-0.720,1.260,119.62,6.30e+01,2,,4.92e+01,,,
"1/0362526297.19609",2014-10-27T21:45:01.111,13737,1550.00,61.07,60.84,"14:35:02",16.34,-0.720,1.260,119.49,5.80e+01,2,,4.17e+01,,,
"1/0362526304.55195",2014-10-27T21:45:08.654,13737,1539.00,61.35,61.12,"14:44:20",16.30,-0.710,1.260,119.37,5.70e+01,1,,4.03e+01,,,
"1/0362526312.25245",2014-10-27T21:45:16.197,13737,1528.00,61.63,61.40,"14:51:20",16.27,-0.710,1.260,119.24,6.00e+01,1,,4.46e+01,,,
"1/0362526319.60831",2014-10-27T21:45:23.740,13737,1518.00,61.91,61.69,"15:00:37",16.23,-0.700,1.260,119.11,6.50e+01,2,,5.24e+01,,,
"1/0362526327.30881",2014-10-27T21:45:31.283,13737,1507.00,62.20,61.97,"15:09:54",16.19,-0.700,1.260,118.98,7.00e+01,2,,6.08e+01,,,
"1/0362526335.00996",2014-10-27T21:45:38.827,13737,1496.00,62.48,62.26,"15:19:12",16.15,-0.690,1.260,118.85,7.40e+01,2,,6.79e+01,,,
"1/0362526342.36582",2014-10-27T21:45:46.370,13737,1485.00,62.77,62.55,"15:28:29",16.11,-0.690,1.250,118.72,8.40e+01,2,,8.75e+01,,,
"1/0362526350.06632",2014-10-27T21:45:53.913,13737,1475.00,63.06,62.84,"15:40:04",16.06,-0.690,1.250,118.59,9.00e+01,2,,1.00e+02,,,
"1/0362526357.42218",2014-10-27T21:46:01.456,13737,1464.00,63.35,63.13,"15:51:39",16.01,-0.680,1.250,118.45,9.40e+01,2,,1.10e+02,,,
"1/0362526365.12268",2014-10-27T21:46:08.999,13737,1453.00,63.64,63.42,"16:00:56",15.97,-0.680,1.250,118.32,9.70e+01,2,,1.17e+02,,,
"1/0362526372.47920",2014-10-27T21:46:16.543,13737,1443.00,63.93,63.71,"16:12:31",15.92,-0.670,1.250,118.18,9.50e+01,2,,1.12e+02,,,
"1/0362526380.17970",2014-10-27T21:46:24.086,13737,1432.00,64.22,64.01,"16:26:24",15.86,-0.670,1.250,118.04,9.20e+01,2,,1.05e+02,,,
"1/0362526387.53556",2014-10-27T21:46:31.629,13737,1422.00,64.52,64.30,"16:37:59",15.81,-0.660,1.250,117.91,9.40e+01,2,,1.10e+02,,,
"1/0362526395.23606",2014-10-27T21:46:39.172,13737,1411.00,64.81,64.60,"16:51:51",15.75,-0.660,1.250,117.77,9.50e+01,2,,1.12e+02,,,
"1/0362526402.59192",2014-10-27T21:46:46.715,13737,1401.00,65.11,64.90,"17:05:43",15.69,-0.650,1.250,117.62,9.30e+01,2,,1.07e+02,,,
"1/0362526410.29308",2014-10-27T21:46:54.259,13737,1390.00,65.41,65.20,"17:19:36",15.63,-0.650,1.240,117.48,9.20e+01,2,,1.05e+02,,,
"1/0362526417.64894",2014-10-27T21:47:01.802,13737,1380.00,65.71,65.50,"17:33:28",15.57,-0.640,1.240,117.34,9.50e+01,2,,1.12e+02,,,
"1/0362526425.34944",2014-10-27T21:47:09.345,13737,1369.00,66.01,65.80,"17:49:38",15.50,-0.640,1.240,117.19,9.60e+01,2,,1.14e+02,,,
"1/0362526433.04994",2014-10-27T21:47:16.888,13737,1359.00,66.31,66.10,"18:05:48",15.43,-0.640,1.240,117.04,9.50e+01,2,,1.12e+02,,,
"1/0362526440.40580",2014-10-27T21:47:24.431,13737,1348.00,66.61,66.41,"18:21:58",15.36,-0.630,1.240,116.90,9.60e+01,2,,1.14e+02,,,
"1/0362526448.10695",2014-10-27T21:47:31.975,13737,1338.00,66.92,66.71,"18:40:25",15.28,-0.630,1.240,116.75,9.70e+01,2,,1.17e+02,,,
"1/0362526455.46281",2014-10-27T21:47:39.518,13737,1328.00,67.22,67.02,"18:56:35",15.21,-0.620,1.240,116.60,1.01e+02,2,,1.26e+02,,,
"1/0362526463.16331",2014-10-27T21:47:47.061,13737,1317.00,67.53,67.33,"19:17:20",15.12,-0.620,1.240,116.45,1.04e+02,2,,1.34e+02,,,
"1/0362526470.51917",2014-10-27T21:47:54.604,13737,1307.00,67.84,67.64,"19:35:48",15.04,-0.610,1.240,116.29,1.04e+02,2,,1.34e+02,,,
"1/0362526478.21967",2014-10-27T21:48:02.147,13737,1297.00,68.15,67.95,"19:56:32",14.95,-0.610,1.230,116.14,1.05e+02,2,,1.37e+02,,,
"1/0362526485.57619",2014-10-27T21:48:09.691,13737,1287.00,68.46,68.26,"20:17:17",14.86,-0.600,1.230,115.98,1.07e+02,2,,1.42e+02,,,
"1/0362526493.27669",2014-10-27T21:48:17.234,13737,1276.00,68.77,68.57,"20:40:20",14.76,-0.600,1.230,115.83,1.07e+02,2,,1.42e+02,,,
"1/0362526500.63255",2014-10-27T21:48:24.777,13737,1266.00,69.08,68.89,"21:03:22",14.66,-0.590,1.230,115.67,1.08e+02,2,,1.45e+02,,,
"1/0362526508.33305",2014-10-27T21:48:32.320,13737,1256.00,69.40,69.21,"21:26:25",14.56,-0.590,1.230,115.51,1.09e+02,2,,1.47e+02,,,
"1/0362526516.03421",2014-10-27T21:48:39.864,13737,1246.00,69.71,69.52,"21:51:45",14.45,-0.580,1.230,115.35,1.10e+02,2,,1.50e+02,,,
"1/0362526523.39007",2014-10-27T21:48:47.407,13737,1236.00,70.03,69.84,"22:19:22",14.33,-0.580,1.230,115.18,1.13e+02,2,,1.58e+02,,,
"1/0362526531.09057",2014-10-27T21:48:54.950,13737,1226.00,70.35,70.16,"22:47:00",14.21,-0.570,1.230,115.02,1.15e+02,2,,1.64e+02,,,
"1/0362526538.44643",2014-10-27T21:49:02.493,13737,1216.00,70.66,70.48,"23:14:37",14.09,-0.570,1.230,114.86,1.14e+02,2,,1.61e+02,,,
"1/0362526546.14693",2014-10-27T21:49:10.036,13737,1206.00,70.98,70.80,"23:46:49",13.95,-0.560,1.230,114.69,1.16e+02,2,,1.67e+02,,,
"1/0362526553.50344",2014-10-27T21:49:17.580,13737,1196.00,71.31,71.13,"00:16:44",13.82,-0.560,1.220,114.52,1.16e+02,2,,1.67e+02,,,
"1/0362526561.20394",2014-10-27T21:49:25.123,13737,1186.00,71.63,71.45,"00:51:14",13.67,-0.560,1.220,114.35,1.15e+02,2,,1.64e+02,,,
"1/0362526568.55980",2014-10-27T21:49:32.666,13737,1176.00,71.95,71.78,"01:25:44",13.52,-0.550,1.220,114.18,1.17e+02,2,,1.70e+02,,,
"1/0362526576.26030",2014-10-27T21:49:40.209,13737,1166.00,72.28,72.11,"02:00:14",13.37,-0.550,1.220,114.01,1.19e+02,2,,1.76e+02,,,
"1/0362526583.61616",2014-10-27T21:49:47.752,13737,1156.00,72.60,72.44,"02:39:19",13.20,-0.540,1.220,113.84,1.19e+02,2,,1.76e+02,,,
"1/0362526591.31732",2014-10-27T21:49:55.296,13737,1147.00,72.93,72.77,"03:18:24",13.03,-0.540,1.220,113.66,1.18e+02,2,,1.73e+02,,,
"1/0362526599.01782",2014-10-27T21:50:02.839,13737,1137.00,73.26,73.10,"03:59:47",12.85,-0.530,1.220,113.49,1.19e+02,2,,1.76e+02,,,
"1/0362526606.37368",2014-10-27T21:50:10.382,13737,1127.00,73.59,73.43,"04:43:27",12.66,-0.530,1.220,113.31,1.19e+02,2,,1.76e+02,,,
"1/0362526614.07418",2014-10-27T21:50:17.925,13737,1118.00,73.92,73.76,"05:31:42",12.45,-0.520,1.220,113.13,1.21e+02,2,,1.82e+02,,,
"1/0362526621.43004",2014-10-27T21:50:25.468,13737,1108.00,74.25,74.10,"06:19:57",12.24,-0.520,1.210,112.95,1.21e+02,2,,1.82e+02,,,
"1/0362526629.13120",2014-10-27T21:50:33.012,13737,1098.00,74.59,74.43,"07:10:30",12.02,-0.510,1.210,112.77,1.21e+02,2,,1.82e+02,,,
"1/0362526636.48706",2014-10-27T21:50:40.555,13737,1089.00,74.92,74.77,"08:03:20",11.79,-0.510,1.210,112.59,1.24e+02,2,,1.91e+02,,,
"1/0362526644.18756",2014-10-27T21:50:48.098,13737,1079.00,75.26,75.11,"09:00:45",11.54,-0.500,1.210,112.41,1.26e+02,2,,1.97e+02,,,
"1/0362526651.54342",2014-10-27T21:50:55.641,13737,1070.00,75.59,75.45,"10:00:27",11.28,-0.500,1.210,112.22,1.26e+02,2,,1.97e+02,,,
"1/0362526659.24392",2014-10-27T21:51:03.184,13737,1060.00,75.93,75.79,"11:04:45",11.00,-0.490,1.210,112.03,1.28e+02,2,,2.03e+02,,,
"1/0362526666.60043",2014-10-27T21:51:10.728,13737,1051.00,76.27,76.13,"12:11:20",10.71,-0.490,1.210,111.85,1.29e+02,2,,2.06e+02,,,
"1/0362526674.30093",2014-10-27T21:51:18.271,13737,1042.00,76.61,76.47,"13:22:30",10.40,-0.480,1.210,111.66,1.29e+02,2,,2.06e+02,,,
"1/0362526682.00143",2014-10-27T21:51:25.814,13737,1032.00,76.95,76.81,"14:38:15",10.07,-0.480,1.210,111.47,1.32e+02,2,,2.16e+02,,,
"1/0362526689.35729",2014-10-27T21:51:33.357,13737,1023.00,77.29,77.16,"15:58:36",9.72,-0.470,1.210,111.27,1.32e+02,2,,2.16e+02,,,
"1/0362526697.05779",2014-10-27T21:51:40.900,13737,1014.00,77.63,77.50,"17:23:31",9.35,-0.470,1.210,111.08,1.34e+02,2,,2.23e+02,,,
"1/0362526704.41431",2014-10-27T21:51:48.444,13737,1005.00,77.98,77.85,"18:55:19",8.95,-0.460,1.200,110.88,1.36e+02,2,,2.29e+02,,,
"1/0362526712.11481",2014-10-27T21:51:55.987,13737,996.00,78.32,78.20,"20:31:41",8.53,-0.460,1.200,110.69,1.37e+02,2,,2.33e+02,,,
"1/0362526719.47067",2014-10-27T21:52:03.530,13737,986.00,78.66,78.54,"22:14:57",8.08,-0.450,1.200,110.49,1.38e+02,2,,2.36e+02,,,
"1/0362526727.17117",2014-10-27T21:52:11.073,13737,977.00,79.01,78.89,"00:07:22",7.59,-0.450,1.200,110.29,1.41e+02,2,,2.47e+02,,,
"1/0362526734.52703",2014-10-27T21:52:18.616,13737,968.00,79.35,79.24,"02:06:40",7.07,-0.440,1.200,110.09,1.43e+02,2,,2.54e+02,,,
"1/0362526742.22819",2014-10-27T21:52:26.160,13737,959.00,79.70,79.59,"04:12:50",6.52,-0.430,1.200,109.89,1.44e+02,2,,2.57e+02,,,
"1/0362526749.58405",2014-10-27T21:52:33.703,13737,951.00,80.05,79.94,"06:30:28",5.92,-0.430,1.200,109.69,1.44e+02,2,,2.57e+02,,,
"1/0362526757.28455",2014-10-27T21:52:41.246,13737,942.00,80.39,80.29,"08:59:34",5.27,-0.420,1.200,109.48,1.45e+02,2,,2.61e+02,,,
"1/0362526764.64041",2014-10-27T21:52:48.789,13737,933.00,80.74,80.64,"11:40:07",4.57,-0.420,1.200,109.27,1.48e+02,2,,2.72e+02,,,
"1/0362526772.34091",2014-10-27T21:52:56.332,13737,924.00,81.08,80.99,"14:36:42",3.80,-0.410,1.200,109.07,1.46e+02,2,,2.64e+02,,,
"1/0362526780.04206",2014-10-27T21:53:03.876,13737,915.00,81.43,81.34,"17:44:45",2.98,-0.410,1.190,108.86,1.45e+02,2,,2.61e+02,,,
"1/0362526787.39792",2014-10-27T21:53:11.419,13737,907.00,81.77,81.68,"21:13:26",2.07,-0.400,1.190,108.65,1.48e+02,2,,2.72e+02,,,
"1/0362526795.09842",2014-10-27T21:53:18.962,13737,898.00,82.12,82.03,"01:00:27",1.08,-0.400,1.190,108.44,1.45e+02,2,,2.61e+02,,,
"1/0362526802.45428",2014-10-27T21:53:26.505,13737,889.00,82.46,82.38,"22:02:10",360.00,-0.390,1.190,108.22,1.53e+02,2,,2.90e+02,,,
"1/0362526810.15478",2014-10-27T21:53:34.048,13737,881.00,82.80,82.72,"02:37:18",358.80,-0.390,1.190,108.01,1.56e+02,2,,3.02e+02,,,
"1/0362526817.51130",2014-10-27T21:53:41.592,13737,872.00,83.14,83.06,"07:39:57",357.48,-0.380,1.190,107.79,1.65e+02,2,,3.38e+02,,,
"1/0362526825.21180",2014-10-27T21:53:49.135,13737,864.00,83.48,83.40,"13:14:41",356.02,-0.380,1.190,107.58,1.69e+02,2,,3.54e+02,,,
"1/0362526832.56766",2014-10-27T21:53:56.678,13737,856.00,83.81,83.74,"19:30:40",354.38,-0.370,1.190,107.36,1.68e+02,2,,3.50e+02,,,
"1/0362526840.26816",2014-10-27T21:54:04.221,13737,847.00,84.13,84.07,"02:27:54",352.56,-0.370,1.190,107.14,1.67e+02,2,,3.46e+02,,,
"1/0362526847.62402",2014-10-27T21:54:11.764,13737,839.00,84.46,84.39,"10:17:51",350.51,-0.360,1.190,106.92,1.60e+02,2,,3.17e+02,,,
"1/0362526855.32517",2014-10-27T21:54:19.308,13737,831.00,84.77,84.71,"19:09:40",348.19,-0.360,1.190,106.69,1.61e+02,2,,3.21e+02,,,
"1/0362526863.02568",2014-10-27T21:54:26.851,13737,823.00,85.08,85.02,"05:10:15",345.57,-0.350,1.180,106.47,1.65e+02,2,,3.38e+02,,,
"1/0362526870.38154",2014-10-27T21:54:34.394,13737,815.00,85.37,85.32,"16:31:03",342.60,-0.340,1.180,106.24,1.65e+02,2,,3.38e+02,,,
"1/0362526878.08204",2014-10-27T21:54:41.937,13737,807.00,85.66,85.60,"05:28:06",339.21,-0.340,1.180,106.02,1.76e+02,2,,3.84e+02,,,
"1/0362526885.43790",2014-10-27T21:54:49.480,13737,799.00,85.92,85.87,"20:12:53",335.35,-0.330,1.180,105.79,1.78e+02,2,,3.93e+02,,,
"1/0362526893.13905",2014-10-27T21:54:57.024,13737,791.00,86.17,86.12,"12:59:07",330.96,-0.330,1.180,105.56,1.77e+02,2,,3.89e+02,,,
"1/0362526900.49491",2014-10-27T21:55:04.567,13737,783.00,86.39,86.34,"08:02:51",325.97,-0.320,1.180,105.33,1.91e+02,2,,4.52e+02,,,
"1/0362526908.19541",2014-10-27T21:55:12.110,13737,775.00,86.58,86.53,"05:26:24",320.37,-0.320,1.180,105.10,1.96e+02,2,,4.76e+02,,,
"1/0362526915.55127",2014-10-27T21:55:19.653,13737,767.00,86.73,86.69,"05:14:20",314.14,-0.310,1.180,104.86,1.81e+02,2,,4.06e+02,,,
"1/0362526923.25177",2014-10-27T21:55:27.196,13737,759.00,86.84,86.80,"07:08:19",307.36,-0.310,1.180,104.63,1.92e+02,2,,4.57e+02,,,
"1/0362526930.60829",2014-10-27T21:55:34.740,13737,752.00,86.91,86.87,"10:36:16",300.17,-0.300,1.180,104.39,1.94e+02,2,,4.67e+02,,,
"1/0362526938.30879",2014-10-27T21:55:42.283,13737,744.00,86.92,86.88,"14:52:21",292.77,-0.300,1.180,104.15,2.00e+02,2,,4.96e+02,,,
"1/0362526946.00929",2014-10-27T21:55:49.826,13737,737.00,86.88,86.84,"19:01:33",285.40,-0.290,1.170,103.91,1.99e+02,2,,4.91e+02,,,
"1/0362526953.36515",2014-10-27T21:55:57.369,13737,729.00,86.79,86.75,"22:08:52",278.30,-0.280,1.170,103.67,2.05e+02,2,,5.21e+02,,,
"1/0362526961.06565",2014-10-27T21:56:04.912,13737,722.00,86.66,86.62,"23:33:04",271.65,-0.280,1.170,103.43,2.02e+02,2,,5.06e+02,,,
"1/0362526968.42216",2014-10-27T21:56:12.456,13737,714.00,86.48,86.44,"22:44:20",265.58,-0.270,1.170,103.19,2.02e+02,2,,5.06e+02,,,
"1/0362526976.12266",2014-10-27T21:56:19.999,13737,707.00,86.26,86.22,"19:31:12",260.14,-0.270,1.170,102.94,2.05e+02,2,,5.21e+02,,,
"1/0362526983.47853",2014-10-27T21:56:27.542,13737,700.00,86.02,85.97,"13:58:17",255.31,-0.260,1.170,102.70,2.09e+02,2,,5.42e+02,,,
"1/0362526991.17903",2014-10-27T21:56:35.085,13737,693.00,85.75,85.70,"06:12:26",251.06,-0.260,1.170,102.45,2.10e+02,2,,5.47e+02,,,
"1/0362526998.53489",2014-10-27T21:56:42.628,13737,686.00,85.45,85.40,"20:29:42",247.32,-0.250,1.170,102.20,2.12e+02,2,,5.57e+02,,,
"1/0362527006.23604",2014-10-27T21:56:50.172,13737,679.00,85.14,85.08,"08:59:15",244.05,-0.250,1.170,101.96,2.12e+02,2,,5.57e+02,,,
"1/0362527013.59190",2014-10-27T21:56:57.715,13737,672.00,84.81,84.75,"19:59:25",241.17,-0.240,1.170,101.70,2.15e+02,2,,5.73e+02,,,
"1/0362527021.29240",2014-10-27T21:57:05.258,13737,665.00,84.47,84.41,"05:39:23",238.64,-0.230,1.170,101.45,2.19e+02,2,,5.95e+02,,,
"1/0362527028.64826",2014-10-27T21:57:12.801,13737,658.00,84.12,84.05,"14:15:10",236.39,-0.230,1.160,101.20,2.22e+02,2,,6.11e+02,,,
"1/0362527036.34942",2014-10-27T21:57:20.345,13737,651.00,83.76,83.69,"21:51:21",234.40,-0.220,1.160,100.95,2.25e+02,2,,6.28e+02,,,
"1/0362527044.04992",2014-10-27T21:57:27.888,13737,645.00,83.39,83.32,"04:37:08",232.63,-0.220,1.160,100.69,2.31e+02,2,,6.62e+02,,,
"1/0362527051.40578",2014-10-27T21:57:35.431,13737,638.00,83.02,82.94,"10:41:39",231.04,-0.210,1.160,100.43,2.32e+02,2,,6.67e+02,,,
"1/0362527059.10628",2014-10-27T21:57:42.974,13737,632.00,82.64,82.55,"16:09:31",229.61,-0.210,1.160,100.18,2.38e+02,2,,7.02e+02,,,
"1/0362527066.46214",2014-10-27T21:57:50.517,13737,625.00,82.25,82.16,"21:05:17",228.32,-0.200,1.160,99.92,2.37e+02,2,,6.97e+02,,,
"1/0362527074.16329",2014-10-27T21:57:58.061,13737,619.00,81.86,81.76,"01:31:15",227.16,-0.200,1.160,99.66,2.38e+02,2,,7.02e+02,,,
"1/0362527081.51915",2014-10-27T21:58:05.604,13737,612.00,81.46,81.36,"05:34:19",226.10,-0.190,1.160,99.39,2.45e+02,2,,7.44e+02,,,
"1/0362527089.21965",2014-10-27T21:58:13.147,13737,606.00,81.06,80.96,"09:16:44",225.13,-0.180,1.160,99.13,2.49e+02,2,,7.69e+02,,,
"1/0362527096.57551",2014-10-27T21:58:20.690,13737,600.00,80.65,80.55,"12:38:33",224.25,-0.180,1.160,98.87,2.52e+02,2,,7.87e+02,,,
"1/0362527104.27601",2014-10-27T21:58:28.233,13737,594.00,80.25,80.13,"15:44:18",223.44,-0.170,1.160,98.60,2.55e+02,2,,8.06e+02,,,
"1/0362527111.63253",2014-10-27T21:58:35.777,13737,588.00,79.83,79.72,"18:36:19",222.69,-0.170,1.150,98.34,2.60e+02,2,,8.38e+02,,,
"1/0362527119.33303",2014-10-27T21:58:43.320,13737,582.00,79.42,79.30,"21:14:34",222.00,-0.160,1.150,98.07,2.59e+02,2,,8.32e+02,,,
"1/0362527127.03353",2014-10-27T21:58:50.863,13737,576.00,79.00,78.88,"23:39:05",221.37,-0.160,1.150,97.80,2.60e+02,2,,8.38e+02,,,
"1/0362527134.38939",2014-10-27T21:58:58.406,13737,570.00,78.58,78.46,"01:54:25",220.78,-0.150,1.150,97.53,2.70e+02,2,,9.04e+02,,,
"1/0362527142.08989",2014-10-27T21:59:05.949,13737,564.00,78.16,78.03,"04:00:36",220.23,-0.140,1.150,97.26,2.71e+02,2,,9.11e+02,,,
"1/0362527149.44641",2014-10-27T21:59:13.493,13737,559.00,77.74,77.60,"05:57:36",219.72,-0.140,1.150,96.99,2.76e+02,2,,9.45e+02,,,
"1/0362527157.14691",2014-10-27T21:59:21.036,13737,553.00,77.31,77.17,"07:47:44",219.24,-0.130,1.150,96.72,2.79e+02,2,,9.65e+02,,,
"1/0362527164.50277",2014-10-27T21:59:28.579,13737,548.00,76.88,76.74,"09:28:42",218.80,-0.130,1.150,96.44,2.91e+02,2,,1.05e+03,,,
"1/0362527172.20327",2014-10-27T21:59:36.122,13737,542.00,76.45,76.30,"11:05:04",218.38,-0.120,1.150,96.17,2.94e+02,2,,1.07e+03,,,
"1/0362527179.55913",2014-10-27T21:59:43.665,13737,537.00,76.02,75.86,"12:34:35",217.99,-0.120,1.150,95.89,3.00e+02,2,,1.12e+03,,,
"1/0362527187.26028",2014-10-27T21:59:51.209,13737,532.00,75.59,75.42,"13:59:30",217.62,-0.110,1.140,95.62,3.07e+02,2,,1.17e+03,,,
"1/0362527194.61614",2014-10-27T21:59:58.752,13737,526.00,75.15,74.98,"15:17:32",217.28,-0.100,1.140,95.34,3.14e+02,2,,1.22e+03,,,
"1/0362527202.31664",2014-10-27T22:00:06.295,13737,521.00,74.71,74.54,"16:33:18",216.95,-0.100,1.140,95.06,3.23e+02,2,,1.29e+03,,,
"1/0362527210.01714",2014-10-27T22:00:13.838,13737,516.00,74.27,74.10,"17:42:10",216.65,-0.090,1.140,94.78,3.36e+02,2,,1.40e+03,,,
"1/0362527217.37300",2014-10-27T22:00:21.381,13737,511.00,73.83,73.65,"18:48:45",216.36,-0.090,1.140,94.50,3.37e+02,2,,1.41e+03,,,
"1/0362527225.07416",2014-10-27T22:00:28.925,13737,506.00,73.39,73.20,"19:53:03",216.08,-0.080,1.140,94.22,3.40e+02,2,,1.43e+03,,,
"1/0362527232.43002",2014-10-27T22:00:36.468,13737,502.00,72.94,72.75,"20:50:28",215.83,-0.080,1.140,93.94,3.33e+02,2,,1.38e+03,,,
"1/0362527240.13052",2014-10-27T22:00:44.011,13737,497.00,72.50,72.30,"21:47:53",215.58,-0.070,1.140,93.66,2.86e+02,2,,1.01e+03,,,
"1/0362527247.48638",2014-10-27T22:00:51.554,13737,492.00,72.05,71.85,"22:40:43",215.35,-0.060,1.140,93.37,2.99e+02,2,,1.11e+03,,,
"1/0362527255.18688",2014-10-27T22:00:59.097,13737,488.00,71.60,71.40,"23:31:16",215.13,-0.060,1.140,93.09,3.18e+02,2,,1.25e+03,,,
"1/0362527262.54340",2014-10-27T22:01:06.641,13737,483.00,71.15,70.94,"00:19:31",214.92,-0.050,1.140,92.80,3.36e+02,2,,1.40e+03,,,
"1/0362527270.24390",2014-10-27T22:01:14.184,13737,479.00,70.70,70.49,"01:05:28",214.72,-0.050,1.130,92.52,3.37e+02,2,,1.41e+03,,,
"1/0362527277.59976",2014-10-27T22:01:21.727,13737,475.00,70.25,70.03,"01:49:08",214.53,-0.040,1.130,92.23,3.46e+02,2,,1.48e+03,,,
"1/0362527285.30026",2014-10-27T22:01:29.270,13737,470.00,69.79,69.57,"02:30:31",214.35,-0.040,1.130,91.94,3.45e+02,2,,1.48e+03,,,
"1/0362527293.00076",2014-10-27T22:01:36.813,13737,466.00,69.34,69.11,"03:09:36",214.18,-0.030,1.130,91.65,3.50e+02,2,,1.52e+03,,,
"1/0362527300.35727",2014-10-27T22:01:44.357,13737,462.00,68.88,68.65,"03:48:41",214.01,-0.020,1.130,91.37,3.54e+02,2,,1.55e+03,,,
"1/0362527308.05777",2014-10-27T22:01:51.900,13737,458.00,68.43,68.19,"04:25:28",213.85,-0.020,1.130,91.08,3.65e+02,2,,1.65e+03,,,
"1/0362527315.41363",2014-10-27T22:01:59.443,13737,455.00,67.97,67.73,"04:59:58",213.70,-0.010,1.130,90.79,3.65e+02,2,,1.65e+03,,,
"1/0362527323.11413",2014-10-27T22:02:06.986,13737,451.00,67.51,67.26,"05:32:11",213.56,-0.010,1.130,90.49,3.67e+02,2,,1.67e+03,,,
"1/0362527330.46999",2014-10-27T22:02:14.529,13737,447.00,67.05,66.80,"06:04:23",213.42,-0.000,1.130,90.20,3.73e+02,2,,1.73e+03,,,
"1/0362527338.17115",2014-10-27T22:02:22.073,13737,444.00,66.58,66.33,"06:34:18",213.29,0.010,1.120,89.91,3.67e+02,2,,1.67e+03,,,
"1/0362527345.52701",2014-10-27T22:02:29.616,13737,440.00,66.12,65.86,"07:01:56",213.17,0.010,1.120,89.62,3.81e+02,2,,1.80e+03,,,
"1/0362527353.22751",2014-10-27T22:02:37.159,13737,437.00,65.66,65.40,"07:29:33",213.05,0.020,1.120,89.33,3.85e+02,2,,1.84e+03,,,
"1/0362527360.58337",2014-10-27T22:02:44.702,13737,433.00,65.19,64.93,"07:57:11",212.93,0.020,1.120,89.03,3.91e+02,2,,1.90e+03,,,
"1/0362527368.28387",2014-10-27T22:02:52.245,13737,430.00,64.72,64.46,"08:22:31",212.82,0.030,1.120,88.74,3.93e+02,2,,1.92e+03,,,
"1/0362527375.64039",2014-10-27T22:02:59.789,13737,427.00,64.26,63.99,"08:45:33",212.72,0.030,1.120,88.44,4.02e+02,2,,2.00e+03,,,
"1/0362527383.34089",2014-10-27T22:03:07.332,13737,424.00,63.79,63.51,"09:08:36",212.62,0.040,1.120,88.15,4.18e+02,2,,2.17e+03,,,
"1/0362527391.04139",2014-10-27T22:03:14.875,13737,421.00,63.32,63.04,"09:31:38",212.52,0.050,1.120,87.85,4.17e+02,2,,2.16e+03,,,
"1/0362527398.39725",2014-10-27T22:03:22.418,13737,418.00,62.85,62.57,"09:52:23",212.43,0.050,1.120,87.56,4.22e+02,2,,2.21e+03,,,
"1/0362527406.09775",2014-10-27T22:03:29.961,13737,415.00,62.38,62.09,"10:13:08",212.34,0.060,1.120,87.26,4.29e+02,2,,2.28e+03,,,
"1/0362527413.45426",2014-10-27T22:03:37.505,13737,413.00,61.91,61.62,"10:33:53",212.25,0.060,1.110,86.96,4.35e+02,2,,2.35e+03,,,
"1/0362527421.15476",2014-10-27T22:03:45.048,13737,410.00,61.44,61.14,"10:52:20",212.17,0.070,1.110,86.67,4.25e+02,2,,2.24e+03,,,
"1/0362527428.51062",2014-10-27T22:03:52.591,13737,408.00,60.96,60.67,"11:10:48",212.09,0.070,1.110,86.37,4.34e+02,2,,2.34e+03,,,
"1/0362527436.21112",2014-10-27T22:04:00.134,13737,405.00,60.49,60.19,"11:29:15",212.01,0.080,1.110,86.07,4.47e+02,2,,2.48e+03,,,
"1/0362527443.56698",2014-10-27T22:04:07.677,13737,403.00,60.01,59.71,"11:45:25",211.94,0.090,1.110,85.77,4.53e+02,2,,2.54e+03,,,
"1/0362527451.26814",2014-10-27T22:04:15.221,13737,401.00,59.54,59.23,"12:01:35",211.87,0.090,1.110,85.48,4.56e+02,2,,2.58e+03,,,
"1/0362527458.62400",2014-10-27T22:04:22.764,13737,399.00,59.06,58.76,"12:17:45",211.80,0.100,1.110,85.18,4.51e+02,2,,2.52e+03,,,
"1/0362527466.32450",2014-10-27T22:04:30.307,13737,397.00,58.59,58.28,"12:33:55",211.73,0.100,1.110,84.88,4.73e+02,2,,2.77e+03,,,
"1/0362527474.02500",2014-10-27T22:04:37.850,13737,395.00,58.11,57.80,"12:47:47",211.67,0.110,1.110,84.58,4.78e+02,2,,2.83e+03,,,
"1/0362527481.38086",2014-10-27T22:04:45.393,13737,393.00,57.63,57.32,"13:01:39",211.61,0.110,1.100,84.28,4.85e+02,2,,2.92e+03,,,
"1/0362527489.08202",2014-10-27T22:04:52.937,13737,391.00,57.15,56.84,"13:15:32",211.55,0.120,1.100,83.98,4.97e+02,2,,3.06e+03,,,
"1/0362527496.43788",2014-10-27T22:05:00.480,13737,390.00,56.68,56.35,"13:27:07",211.50,0.130,1.100,83.68,4.96e+02,2,,3.05e+03,,,
"1/0362527504.13838",2014-10-27T22:05:08.023,13737,388.00,56.20,55.87,"13:40:59",211.44,0.130,1.100,83.39,5.00e+02,2,,3.10e+03,,,
"1/0362527511.49424",2014-10-27T22:05:15.566,13737,387.00,55.72,55.39,"13:52:34",211.39,0.140,1.100,83.09,5.02e+02,2,,3.13e+03,,,
"1/0362527519.19474",2014-10-27T22:05:23.109,13737,385.00,55.24,54.91,"14:04:09",211.34,0.140,1.100,82.79,5.10e+02,2,,3.23e+03,,,
"1/0362527526.55125",2014-10-27T22:05:30.653,13737,384.00,54.75,54.43,"14:15:44",211.29,0.150,1.100,82.49,4.92e+02,2,,3.00e+03,,,
"1/0362527534.25175",2014-10-27T22:05:38.196,13737,383.00,54.27,53.94,"14:25:01",211.25,0.150,1.100,82.19,4.74e+02,2,,2.79e+03,,,
"1/0362527541.60761",2014-10-27T22:05:45.739,13737,382.00,53.79,53.46,"14:36:36",211.20,0.160,1.100,81.89,5.28e+02,2,,3.46e+03,,,
"1/0362527549.30811",2014-10-27T22:05:53.282,13737,381.00,53.31,52.97,"14:45:53",211.16,0.170,1.100,81.60,5.22e+02,2,,3.38e+03,,,
"1/0362527557.00861",2014-10-27T22:06:00.825,13737,380.00,52.83,52.49,"14:55:11",211.12,0.170,1.090,81.30,5.22e+02,2,,3.38e+03,,,
"1/0362527564.36513",2014-10-27T22:06:08.369,13737,379.00,52.35,52.01,"15:04:28",211.08,0.180,1.090,81.00,4.98e+02,2,,3.08e+03,,,
"1/0362527572.06563",2014-10-27T22:06:15.912,13737,379.00,51.86,51.52,"15:13:46",211.04,0.180,1.090,80.70,5.02e+02,2,,3.13e+03,,,
"1/0362527579.42149",2014-10-27T22:06:23.455,13737,378.00,51.38,51.04,"15:23:03",211.00,0.190,1.090,80.41,5.13e+02,2,,3.26e+03,,,
"1/0362527587.12199",2014-10-27T22:06:30.998,13737,378.00,50.90,50.55,"15:30:03",210.97,0.190,1.090,80.11,5.12e+02,2,,3.25e+03,,,
"1/0362527594.47851",2014-10-27T22:06:38.542,13737,377.00,50.41,50.07,"15:37:03",210.94,0.200,1.090,79.81,5.18e+02,2,,3.33e+03,,,
"1/0362527602.17901",2014-10-27T22:06:46.085,13737,377.00,49.93,49.58,"15:46:20",210.90,0.210,1.090,79.52,4.94e+02,2,,3.03e+03,,,
"1/0362527609.53487",2014-10-27T22:06:53.628,13737,377.00,49.45,49.10,"15:53:20",210.87,0.210,1.090,79.22,4.77e+02,2,,2.82e+03,,,
"1/0362527617.23537",2014-10-27T22:07:01.171,13737,377.00,48.96,48.61,"16:00:20",210.84,0.220,1.090,78.92,5.09e+02,2,,3.21e+03,,,